Wetbulb
70.98 70.67 70.13 69.54 70.10 69.67 70.12 70.92 71.94 72.01 72.61 72.67 72.87 72.82 71.22 70.66 70.72 70.09 70.30 70.08 69.84 69.77
71.22 71.06 70.57 70.01 70.32 70.45 70.66 70.99 71.55 72.33 72.38 72.53 72.50 72.65 70.77 70.80 70.54 69.89 70.18 69.79 69.86 70.27
71.39 71.45 71.58 70.98 70.25 70.44 70.35 70.73 71.30 72.13 72.75 72.84 72.67 72.38 71.05 70.57 69.75 69.23 69.62 70.18 70.26 70.71
71.63 71.84 71.53 71.23 70.99 70.87 70.55 70.22 71.10 71.88 72.62 72.86 72.62 71.72 70.53 70.26 69.52 69.43 69.59 70.35 70.06 70.07
72.33 72.42 71.75 71.29 71.43 71.36 70.93 70.82 71.06 72.01 72.45 72.57 72.30 71.30 70.28 69.07 69.15 69.01 68.55 69.21 69.96 70.09
72.23 72.69 72.24 72.24 72.41 72.55 71.51 71.68 72.06 72.11 72.13 72.01 71.72 70.81 70.53 70.06 69.59 69.43 69.51 69.85 69.96 70.54
72.08 72.68 72.59 72.49 72.04 71.21 71.93 72.12 72.70 72.65 72.20 72.18 71.57 71.13 70.77 70.42 69.98 70.36 70.56 70.90 71.11 70.98
67.31 67.97 67.52 67.27 66.91 66.25 66.11 65.76 66.20 70.38 71.18 70.76 70.48 70.70 70.67 71.05 70.81 70.69 70.99 71.19 70.69 70.84
66.17 66.33 67.07 66.55 66.44 65.93 65.64 65.60 65.73 66.73 68.78 69.50 70.73 65.76 64.92 69.21 71.12 71.28 70.87 70.66 70.74 70.45
64.46 64.73 65.09 65.59 65.86 65.23 64.51 64.01 64.15 65.32 66.89 68.31 70.35 62.66 62.10 64.28 71.33 71.14 71.32 71.06 71.15 69.49
63.33 63.12 64.39 64.71 64.73 64.56 64.29 64.03 63.80 64.39 66.08 67.54 68.24 61.21 58.98 62.03 68.40 70.07 70.55 70.65 70.76 70.22
64.83 63.06 63.02 63.37 63.92 63.78 63.87 63.46 64.36 65.24 65.59 65.58 66.55 59.40 58.68 61.06 65.67 67.34 69.28 70.10 70.53 70.28
62.62 62.75 63.04 63.35 63.36 64.27 64.12 64.22 65.03 65.18 65.41 63.65 65.93 58.49 56.68 60.59 66.50 66.07 67.20 66.91 68.85 62.22
60.25 60.34 61.03 61.74 62.63 62.88 63.03 63.30 64.76 65.71 65.66 66.36 65.31 64.11 54.32 55.05 66.46 66.12 64.48 64.67 64.51 66.55
MSLP
1005.35 1005.70 1006.36 1006.83 1007.34 1007.75 1008.31 1008.78 1009.53 1010.39 1010.87 1011.13 1011.44 1012.06 1012.92 1013.17 1013.29 1013.41 1013.81 1014.44 1014.63 1014.81
1004.97 1005.08 1005.07 1005.48 1005.88 1006.74 1007.40 1007.94 1008.46 1009.15 1009.89 1010.37 1010.71 1011.19 1011.86 1012.49 1012.88 1012.85 1013.08 1013.30 1013.53 1013.75
1004.24 1004.21 1004.25 1005.06 1005.27 1005.54 1006.61 1007.45 1008.08 1008.42 1008.99 1009.58 1010.04 1010.44 1010.86 1011.49 1011.97 1012.32 1012.62 1012.80 1013.13 1013.42
1003.49 1003.43 1004.07 1004.42 1005.09 1005.12 1005.39 1006.45 1007.19 1007.63 1008.00 1008.69 1009.29 1009.79 1010.32 1010.59 1011.07 1011.47 1011.88 1012.26 1012.53 1012.63
1003.71 1003.30 1003.55 1003.78 1004.08 1004.46 1004.95 1005.76 1006.43 1007.06 1007.38 1007.67 1008.50 1009.30 1009.64 1009.97 1010.22 1010.68 1011.03 1011.35 1011.81 1012.03
1003.37 1003.20 1003.22 1003.13 1003.24 1003.93 1004.45 1005.08 1005.44 1006.12 1006.94 1007.32 1007.69 1008.39 1008.95 1009.26 1009.61 1009.81 1010.12 1010.58 1011.11 1011.40
1002.93 1002.78 1002.90 1003.01 1003.62 1004.26 1004.41 1004.93 1005.24 1005.92 1006.39 1007.02 1007.43 1007.77 1008.28 1008.66 1008.98 1009.39 1009.55 1009.78 1010.40 1010.83
1002.76 1002.74 1002.94 1003.29 1003.71 1004.20 1004.20 1003.99 1004.16 1005.64 1006.40 1006.95 1006.97 1006.99 1007.53 1007.91 1008.47 1008.77 1008.95 1009.13 1009.41 1009.97
1003.62 1003.38 1003.08 1003.30 1003.42 1003.47 1003.79 1003.36 1003.24 1005.29 1006.09 1006.21 1006.38 1006.48 1006.63 1007.36 1007.66 1008.29 1008.59 1008.33 1008.54 1008.94
1004.78 1004.57 1004.42 1004.00 1003.45 1003.30 1003.50 1003.51 1003.10 1003.60 1005.14 1006.42 1006.11 1005.73 1006.11 1006.66 1007.13 1007.64 1008.27 1008.49 1007.98 1007.99
1005.27 1005.40 1004.85 1004.47 1003.76 1003.59 1003.68 1003.39 1002.95 1001.97 1004.23 1006.16 1006.03 1005.86 1005.96 1006.12 1006.44 1006.66 1007.00 1007.98 1007.53 1007.73
1005.24 1005.36 1005.45 1005.04 1003.97 1003.80 1003.10 1002.81 1003.34 1003.11 1004.54 1005.18 1005.61 1005.17 1005.87 1006.36 1006.52 1006.75 1006.92 1007.25 1007.13 1007.54
1005.19 1005.03 1004.47 1003.89 1003.00 1002.80 1002.28 1002.26 1002.42 1003.37 1003.60 1004.43 1004.52 1004.80 1005.70 1006.07 1006.30 1006.62 1006.71 1006.62 1006.59 1008.14
1005.52 1004.61 1003.93 1003.55 1003.55 1003.69 1003.15 1002.60 1002.84 1003.84 1004.43 1004.41 1004.40 1004.80 1005.12 1005.73 1006.01 1006.29 1006.63 1006.84 1007.30 1007.00
Wind_Speed
16 12 11 13 11 11 11 12 11 12 12 12 11 10 8 7 10 10 10 13 10 7
12 16 15 16 15 11 11 10 11 12 13 12 11 10 10 7 9 7 10 10 10 9
14 17 16 12 16 15 11 11 10 12 12 11 11 11 12 8 8 8 7 7 9 8
16 14 13 11 11 12 12 12 12 12 12 12 11 10 10 10 10 11 9 8 9 10
14 13 14 15 14 11 12 11 12 11 11 11 10 10 11 11 10 11 11 10 9 9
14 14 14 13 10 8 11 12 12 11 10 10 11 10 10 10 10 10 10 9 9 9
12 12 12 9 6 6 6 5 2 6 9 9 8 9 10 10 9 9 8 9 9 8
3 9 9 10 10 9 8 8 9 2 5 6 8 8 10 10 10 10 10 9 8 8
3 3 9 10 7 8 7 8 8 3 6 9 8 12 14 9 9 9 9 9 9 7
5 5 6 5 5 3 1 2 7 9 0 11 11 15 14 12 7 7 7 8 8 7
1 3 7 7 5 3 4 3 2 6 6 9 6 6 5 9 7 7 7 9 9 8
3 4 5 6 5 4 5 4 3 4 8 10 9 6 8 7 4 4 7 8 7 8
3 2 2 3 4 4 3 3 4 4 1 7 8 9 11 9 4 6 5 4 4 12
6 6 6 6 5 4 2 4 5 1 1 1 8 8 13 11 6 5 3 3 5 4
Wind_Direction
201 194 193 185 185 191 195 206 195 196 205 207 200 201 192 198 205 194 227 218 208 211
204 203 199 194 188 190 200 202 196 189 204 211 209 191 182 207 213 201 210 219 213 207
209 213 209 194 197 188 187 201 192 190 197 206 205 194 187 195 200 193 205 217 214 215
225 220 215 200 204 199 176 185 190 198 195 199 202 198 193 197 187 194 202 206 208 218
251 241 210 213 207 185 188 182 193 201 206 200 200 196 197 199 195 196 202 206 208 223
239 235 228 221 211 189 181 193 192 198 208 197 196 193 205 201 194 197 203 198 203 218
226 218 221 201 159 138 126 151 204 219 206 205 188 192 197 193 191 200 201 192 205 212
89 131 123 120 131 136 130 110 93 53 223 207 186 183 188 193 194 199 203 198 194 203
22 143 158 165 183 163 161 137 120 182 270 209 201 192 186 189 193 204 214 203 196 181
345 342 305 282 209 182 129 164 156 134 238 262 221 186 182 195 181 186 220 235 210 179
116 253 264 258 252 141 153 156 103 115 177 250 249 223 266 197 184 183 197 221 211 202
194 201 211 206 211 219 142 127 140 119 194 218 234 195 202 182 190 214 222 227 225 221
351 347 356 14 21 1 23 64 57 3 281 252 249 207 216 202 195 214 210 203 182 235
347 7 5 10 18 356 42 52 28 38 91 227 218 217 188 190 186 177 168 182 214 187